Location: Unspecified
(48.5670°N, 0.0000°E)
Time: 08:40:00
(UTC+00:00)

Vanguard 2 Rocket - Pass Details

Date: 02 September 2019
Orbit: 554 x 3327 km, 32.9° (Epoch: 15 October)

Event Time Altitude Azimuth Distance (km) Brightness Sun altitude
Rises 04:06:02 0° 260° (W) 4,707 - -12.0°
Reaches altitude 10° 04:09:05 10° 251° (WSW) 4,065 - -11.5°
Exits shadow 04:10:02 13° 247° (WSW) 3,895 9.4 -11.4°
Maximum altitude 04:19:02 34° 192° (SSW) 3,471 9.5 -10.0°
Drops below altitude 10° 04:33:49 10° 137° (SE) 6,016 11.4 -7.8°
Sets 04:39:37 0° 130° (SE) 7,231 11.9 -6.9°
